Home   Weather   Vallejo   Past weeks

Flag for USA Past Weather in Vallejo, California, USA — Yesterday and Last 2 Weeks

Now
60 °F

Sunny.


Feels Like: 60 °F
Forecast: 60 / 83 °F
Wind: 3 mph from Southeast

Location: Napa County Airport

Current Time: Jul 23, 2017 at 8:08:02 am

Latest Report: Jul 23, 2017 at 6:54 am


Visibility: 10 mi

Pressure: 29.81 "Hg

Humidity: 83%

Dew Point: 55 °F

Location of VallejoLocation

Past Weather in Vallejo — Graph

°F

Vallejo Temperature Yesterday

Maximum temperature yesterday: 88 °F (at 2:54 pm)
Minimum temperature yesterday: 56 °F (at 6:54 am)
Average temperature yesterday: 71 °F

High & Low Weather Summary for the Past Weeks

 TemperatureHumidityPressure
High98 °F (Jul 16, 3:54 pm)93% (Jul 19, 6:15 am)30.04 "Hg (Jul 19, 6:15 am)
Low52 °F (Jul 18, 5:54 am)16% (Jul 16, 5:54 pm)29.76 "Hg (Jul 16, 6:54 pm)
Average68 °F65%29.91 "Hg
* Reported Jul 8 5:54 am — Jul 23 5:54 am, Vallejo. Weather by CustomWeather, © 2017

Note: Actual official high and low records may vary slightly from our data, if they occured in-between our weather recording intervals... More about our weather records

Advertising

Vallejo Weather History for the Previous 24 Hours

Scroll right to see more
 ConditionsComfort  
Time TempWeatherWind HumidityBarometerVisibility
5:54 am
Sun, Jul 23
57 °FClear.3 mph87%29.80 "Hg9 mi
4:54 am61 °FClear.3 mph78%29.79 "Hg10 mi
3:54 am58 °FClear.5 mph87%29.79 "Hg10 mi
2:54 am59 °FClear.7 mph78%29.79 "Hg10 mi
1:54 am62 °FClear.3 mph73%29.80 "Hg10 mi
12:54 am64 °FClear.7 mph75%29.82 "Hg10 mi
11:54 pm
Sat, Jul 22
65 °FClear.6 mph76%29.82 "Hg10 mi
10:54 pm68 °FClear.5 mph68%29.81 "Hg10 mi
9:54 pm69 °FClear.8 mph68%29.81 "Hg10 mi
8:54 pm72 °FClear.8 mph61%29.79 "Hg10 mi
7:54 pm80 °FSunny.12 mph51%29.79 "Hg10 mi
6:54 pm84 °FSunny.13 mph41%29.78 "Hg10 mi
5:54 pm84 °FSunny.10 mph43%29.79 "Hg10 mi
4:54 pm87 °FSunny.12 mph36%29.80 "Hg9 mi
3:54 pm88 °FSunny.10 mph33%29.81 "Hg10 mi
2:54 pm88 °FSunny.10 mph34%29.83 "Hg10 mi
1:54 pm86 °FSunny.9 mph36%29.85 "Hg10 mi
12:54 pm82 °FSunny.7 mph40%29.87 "Hg10 mi
11:54 am79 °FSunny.7 mph47%29.89 "Hg10 mi
10:54 am73 °FSunny.6 mph55%29.90 "Hg10 mi
9:54 am70 °FSunny.7 mph59%29.91 "Hg10 mi
8:54 am66 °FSunny.6 mph70%29.92 "Hg10 mi
Weather by CustomWeather, © 2017

See weather overviewHow to use our weather pages